Weather in Kasli

Russia / Chelyabinsk Oblast     55°53′37″N   60°45′57″E
temp.,
°C
wind,
m/s
gust,
m/s
humid.,
%
clouds,
%
prec.,
mm/h
press.,
hPa
HPBL,
m
17 may, mon
mon1723:00+20wsw384734 0.0 1018121
02:00+18w310505 0.0 1018167
05:00+17w310527 0.0 1019165
08:00+25w4113422 0.0 1018558
11:00+29w79265 0.0 10182716
14:00+30w6102183 0.0 10173675
17:00+30w692398 0.0 10153945
20:00+26wsw510364 0.0 1015531
18 may, tue
tue1823:00+15nnw128058 1.1 101731
02:00+16sw2582100 1.3 1016109
05:00+16w3978100 1.3 1015222
08:00+19wnw5106773 0.0 1015489
11:00+24nw58412 0.0 10152090
14:00+26nw683211 0.0 10142785
17:00+22nne88468 0.0 10161503
20:00+17nne686142 0.1 10191104
19 may, wed
wed1923:00+13nne5971100 0.1 10221035
02:00+12ne5763100 0.0 10231180
05:00+12ne476092 0.0 10241132
08:00+13ene46635 0.0 1025893
11:00+17ene34475 0.0 10251379
14:00+20ene34365 0.0 10241601
17:00+20ene333385 0.0 10241764
20:00+17e2247100 0.0 102324
20 may, thu
thu2023:00+13s115693 0.0 102510
02:00+11sw11634 0.0 102510
05:00+10wsw11665 0.0 102511
08:00+17wsw12462 0.0 1025325
11:00+23w11315 0.0 10241427
14:00+26wsw11241 0.0 10221868
17:00+26w11234 0.0 10212010
20:00+21s22380 0.0 102028
21 may, fri
fri2123:00+16sw23497 0.0 102235
02:00+14w21525 0.0 102111
05:00+13w11575 0.0 102210
08:00+20wnw11425 0.0 1022242
11:00+26sse11305 0.0 10211395
14:00+27sse332226 0.0 10202296
17:00+27sse332136 0.0 10192453
20:00+23s383566 0.0 1019222